Location: Borea
(45.6167°N, 23.0167°E)
Time: 15:12:01
(UTC+00:00)

FENGYUN 1C DEB - Pass Details

Date: 24 February 2024
Orbit: 561 x 661 km, 99.3° (Epoch: 16 April)

Event Time Altitude Azimuth Distance (km) Brightness Sun altitude
Rises 03:19:17 0° 10° (N) 3,112 ? -21.2°
Reaches altitude 10° 03:21:37 10° 6° (N) 2,176 ? -20.8°
Maximum altitude 03:26:15 52° 291° (WNW) 850 ? -20.0°
Enters shadow 03:27:18 43° 248° (WSW) 960 ? -19.8°
